Total_Precipitation_Accumulation
0.14 0.21 0.24 0.29 0.38 0.40 0.44 0.51 0.51 0.46 0.55 0.62 0.52 0.51 0.60 0.58 0.47 0.34 0.19 0.13 0.09 0.06 0.05 0.04 0.03 0.02 0.03 0.03 0.06 0.11 0.18 0.28 0.40 0.53 0.70 0.87 1.04 1.15
0.20 0.26 0.29 0.33 0.38 0.37 0.44 0.51 0.52 0.53 0.59 0.57 0.44 0.41 0.43 0.34 0.26 0.18 0.10 0.07 0.04 0.04 0.03 0.02 0.02 0.01 0.02 0.02 0.02 0.03 0.04 0.06 0.09 0.16 0.26 0.41 0.60 0.84
0.24 0.30 0.35 0.39 0.41 0.39 0.47 0.49 0.46 0.54 0.51 0.41 0.40 0.39 0.35 0.27 0.16 0.11 0.07 0.04 0.03 0.03 0.03 0.03 0.02 0.01 0.01 0.01 0.01 0.01 0.02 0.02 0.02 0.03 0.05 0.10 0.17 0.29
0.31 0.43 0.46 0.49 0.44 0.40 0.45 0.44 0.43 0.56 0.55 0.38 0.34 0.31 0.32 0.26 0.19 0.14 0.09 0.04 0.02 0.03 0.02 0.02 0.02 0.01 0.00 0.00 0.00 0.00 0.01 0.01 0.01 0.01 0.01 0.01 0.03 0.06
0.42 0.44 0.42 0.47 0.43 0.39 0.40 0.39 0.41 0.55 0.53 0.40 0.34 0.34 0.33 0.23 0.18 0.13 0.08 0.05 0.02 0.02 0.02 0.01 0.02 0.02 0.01 0.00 0.00 0.00 0.00 0.00 0.00 0.01 0.01 0.00 0.00 0.01
0.43 0.29 0.30 0.37 0.37 0.33 0.30 0.28 0.31 0.36 0.36 0.35 0.35 0.36 0.33 0.27 0.21 0.15 0.09 0.05 0.03 0.01 0.01 0.00 0.00 0.01 0.00 0.00 0.00 0.00 0.00 0.00 0.00 0.00 0.01 0.01 0.01 0.01
0.23 0.16 0.15 0.21 0.29 0.28 0.23 0.22 0.24 0.24 0.25 0.26 0.27 0.29 0.32 0.30 0.23 0.15 0.11 0.06 0.03 0.01 0.01 0.01 0.01 0.01 0.00 0.00 0.00 0.00 0.00 0.00 0.00 0.00 0.01 0.01 0.00 0.00
0.12 0.11 0.07 0.05 0.09 0.17 0.20 0.21 0.23 0.23 0.23 0.25 0.27 0.26 0.25 0.25 0.20 0.13 0.08 0.05 0.04 0.03 0.04 0.04 0.03 0.02 0.00 0.00 0.00 0.00 0.00 0.00 0.00 0.00 0.00 0.00 0.00 0.00
0.09 0.08 0.06 0.03 0.03 0.04 0.08 0.10 0.13 0.16 0.18 0.22 0.26 0.26 0.24 0.21 0.16 0.13 0.09 0.07 0.05 0.03 0.04 0.04 0.02 0.01 0.00 0.00 0.00 0.00 0.00 0.00 0.00 0.00 0.00 0.00 0.00 0.00
0.09 0.08 0.06 0.03 0.02 0.01 0.02 0.03 0.05 0.07 0.09 0.12 0.16 0.18 0.18 0.16 0.13 0.11 0.09 0.08 0.05 0.04 0.02 0.03 0.02 0.02 0.02 0.01 0.00 0.00 0.00 0.00 0.00 0.00 0.00 0.00 0.00 0.00
0.11 0.10 0.08 0.05 0.02 0.01 0.01 0.01 0.02 0.04 0.07 0.09 0.10 0.11 0.13 0.11 0.08 0.06 0.05 0.03 0.04 0.03 0.02 0.02 0.02 0.03 0.05 0.03 0.00 0.00 0.00 0.00 0.00 0.00 0.00 0.00 0.01 0.01
0.16 0.14 0.12 0.07 0.03 0.01 0.02 0.02 0.01 0.01 0.02 0.04 0.05 0.06 0.05 0.05 0.05 0.04 0.03 0.02 0.02 0.02 0.01 0.01 0.01 0.02 0.04 0.02 0.01 0.00 0.00 0.00 0.00 0.00 0.00 0.01 0.02 0.02
0.24 0.21 0.17 0.12 0.05 0.02 0.02 0.03 0.01 0.01 0.01 0.01 0.02 0.02 0.02 0.02 0.02 0.02 0.02 0.02 0.01 0.00 0.00 0.00 0.01 0.01 0.01 0.01 0.00 0.00 0.00 0.00 0.00 0.00 0.00 0.01 0.01 0.04
0.33 0.31 0.26 0.20 0.09 0.03 0.01 0.01 0.01 0.01 0.01 0.01 0.02 0.01 0.01 0.01 0.01 0.01 0.01 0.00 0.00 0.00 0.00 0.00 0.00 0.00 0.00 0.00 0.00 0.00 0.00 0.00 0.00 0.01 0.01 0.01 0.01 0.05
0.40 0.42 0.37 0.28 0.15 0.06 0.02 0.01 0.00 0.00 0.01 0.01 0.01 0.01 0.01 0.00 0.00 0.00 0.00 0.00 0.00 0.00 0.00 0.00 0.00 0.00 0.00 0.00 0.00 0.00 0.00 0.00 0.00 0.00 0.01 0.01 0.02 0.04
0.46 0.43 0.41 0.33 0.21 0.10 0.04 0.01 0.00 0.00 0.00 0.00 0.00 0.00 0.00 0.00 0.00 0.00 0.00 0.00 0.00 0.00 0.00 0.00 0.00 0.00 0.00 0.00 0.00 0.00 0.00 0.00 0.00 0.00 0.00 0.01 0.02 0.03
0.47 0.46 0.43 0.35 0.23 0.13 0.06 0.02 0.00 0.00 0.00 0.00 0.00 0.00 0.00 0.00 0.00 0.00 0.00 0.00 0.00 0.00 0.00 0.00 0.00 0.00 0.00 0.00 0.00 0.00 0.00 0.00 0.00 0.00 0.00 0.00 0.01 0.03
0.40 0.43 0.42 0.33 0.21 0.12 0.05 0.02 0.01 0.00 0.00 0.00 0.00 0.00 0.00 0.00 0.00 0.00 0.00 0.00 0.00 0.00 0.00 0.00 0.00 0.00 0.00 0.00 0.00 0.00 0.00 0.00 0.00 0.00 0.00 0.00 0.01 0.02
0.29 0.30 0.30 0.25 0.16 0.09 0.03 0.01 0.00 0.00 0.00 0.00 0.00 0.00 0.00 0.00 0.00 0.00 0.00 0.00 0.00 0.00 0.00 0.00 0.00 0.00 0.00 0.00 0.00 0.00 0.00 0.00 0.00 0.00 0.00 0.00 0.00 0.00
0.19 0.18 0.16 0.15 0.10 0.05 0.02 0.01 0.00 0.00 0.00 0.00 0.00 0.00 0.00 0.00 0.00 0.00 0.00 0.00 0.00 0.00 0.00 0.00 0.00 0.00 0.00 0.00 0.00 0.00 0.00 0.00 0.00 0.00 0.00 0.00 0.00 0.00
0.11 0.09 0.08 0.06 0.04 0.02 0.01 0.00 0.00 0.00 0.00 0.00 0.00 0.00 0.00 0.00 0.00 0.00 0.00 0.00 0.00 0.00 0.00 0.00 0.00 0.00 0.00 0.00 0.00 0.00 0.00 0.00 0.00 0.00 0.00 0.00 0.00 0.00
0.07 0.05 0.03 0.02 0.01 0.00 0.00 0.00 0.00 0.00 0.00 0.00 0.00 0.00 0.00 0.00 0.00 0.00 0.00 0.00 0.00 0.00 0.00 0.00 0.00 0.00 0.00 0.00 0.00 0.00 0.00 0.00 0.00 0.00 0.00 0.00 0.00 0.00
0.06 0.03 0.01 0.00 0.00 0.00 0.00 0.00 0.00 0.00 0.00 0.00 0.00 0.00 0.00 0.00 0.00 0.00 0.00 0.00 0.00 0.00 0.00 0.00 0.00 0.00 0.00 0.00 0.00 0.00 0.00 0.00 0.00 0.00 0.00 0.00 0.00 0.00